Location: Boiro
(42.6475°N, 8.8834°W)
Time: 22:34:55
(UTC+01:00)

Tiros 1 - Pass Details

Date: 10 December 2021
Orbit: 629 x 664 km, 48.4° (Epoch: 18 January)

Event Time Altitude Azimuth Distance (km) Brightness Sun altitude
Rises 17:12:07 0° 222° (SW) 2,902 12.9 6.6°
Reaches altitude 10° 17:14:29 10° 216° (SW) 1,998 11.7 6.3°
Maximum altitude 17:18:52 45° 144° (SE) 854 7.9 5.7°
Drops below altitude 10° 17:23:18 10° 72° (ENE) 2,017 9.1 5.0°
Sets 17:25:42 0° 66° (ENE) 2,933 9.9 4.7°
